This is the latest recevied weather packets stored in our database for station/object WX1N. If no packets are shown the sender has not sent any weather packets the latest 10 day(s).
| Time | Temp. | Humidity | Pressure | Rain* | Wind** | Luminosity | Snow |
|---|---|---|---|---|---|---|---|
| 1777737603 | 10° C | 79% | 1010 hPa | 0 mm | - | - | - |
| 1777737303 | 10.56° C | 77% | 1009.9 hPa | 0 mm | - | - | - |
| 1777737003 | 11.11° C | 76% | 1009.9 hPa | 0 mm | - | - | - |
| 1777736702 | 11.67° C | 75% | 1009.8 hPa | 0 mm | - | - | - |
| 1777736403 | 11.67° C | 81% | 1009.8 hPa | 0 mm | - | - | - |
| 1777736103 | 11.11° C | 80% | 1009.8 hPa | 0 mm | - | - | - |
| 1777735803 | 10.56° C | 80% | 1009.7 hPa | 0 mm | - | - | - |
| 1777735503 | 11.11° C | 83% | 1009.8 hPa | 0 mm | - | - | - |
| 1777735202 | 10.56° C | 84% | 1009.8 hPa | 0 mm | - | - | - |
| 1777734903 | 10.56° C | 82% | 1009.9 hPa | 0 mm | - | - | - |
| 1777734602 | 10.56° C | 82% | 1009.9 hPa | 0 mm | - | - | - |
| 1777734303 | 10.56° C | 83% | 1010 hPa | 0 mm | - | - | - |
| 1777734003 | 11.11° C | 85% | 1010 hPa | 0 mm | - | - | - |
| 1777733703 | 10.56° C | 88% | 1010 hPa | 0 mm | - | - | - |
| 1777733403 | 10° C | 86% | 1010 hPa | 0 mm | - | - | - |
| 1777733103 | 10° C | 86% | 1010.1 hPa | 0 mm | - | - | - |
| 1777732803 | 10° C | 86% | 1010.1 hPa | 0 mm | - | - | - |
| 1777732503 | 10° C | 87% | 1010.1 hPa | 0 mm | - | - | - |
| 1777732203 | 9.44° C | 88% | 1010.2 hPa | 0 mm | - | - | - |
| 1777731903 | 9.44° C | 87% | 1010.2 hPa | 0 mm | - | - | - |
| 1777731603 | 9.44° C | 87% | 1010.3 hPa | 0 mm | - | - | - |
| 1777731003 | 8.89° C | 87% | 1010.3 hPa | 0 mm | - | - | - |
| 1777730703 | 9.44° C | 87% | 1010.3 hPa | 0 mm | - | - | - |
| 1777730403 | 8.89° C | 87% | 1010.5 hPa | 0 mm | - | - | - |
| 1777730103 | 8.89° C | 86% | 1010.5 hPa | 0 mm | - | - | - |
* Rain latest hour (hover to see other rain measurements)
** Current wind speed in m/s (hover to see current wind gust speed)